Comanche, TX

8:47 AM CDT on June 26, 2017 (GMT -0500)
Comanche

Weather History for KMKN - July, 2013

Change the Weather History Date:

Wednesday, July 10, 2013

  Actual Average (KSEP) Record (KSEP)
Temperature  
Mean Temperature 88 °F -  
Max Temperature 101 °F 93 °F 103 °F (1954)
Min Temperature 76 °F 70 °F 61 °F (1952)
Cooling Degree Days 23    
Growing Degree Days 38 (Base 50)    
Moisture  
Dew Point 62 °F    
Average Humidity 45    
Maximum Humidity 78    
Minimum Humidity 22    
Precipitation  
Precipitation 0.00 in - - ()
Sea Level Pressure  
Sea Level Pressure 30.04 in    
Wind  
Wind Speed 7 mph (South)    
Max Wind Speed 13 mph    
Max Gust Speed 21 mph    
Visibility 10 miles    
Events      
Averages and records for this station are not official NWS values.
T = Trace of Precipitation, MM = Missing Value Source: NWS Daily Summary

Daily Weather History Graph

Daily Weather History Graph

Search for Another Location

Airport or City:

Trip Planner

Search our weather history database for the weather conditions in past years. The results will help you decide how hot, cold, wet, or windy it might be!

Date:

Astronomy

Jul. 10, 2013 Rise Set
Actual Time 6:36 AM CDT 8:42 PM CDT
Civil Twilight 6:08 AM CDT 9:10 PM CDT
Nautical Twilight 5:34 AM CDT 9:44 PM CDT
Astronomical Twilight 4:58 AM CDT 10:20 PM CDT
Moon 8:48 AM CDT (7/10) 10:06 PM CDT (7/10)
Length of Visible Light 15h 01m
Length of Day
14h 06m
Waxing Crescent, 5% of the Moon is Illuminated
Jul 10
Waxing Crescent
Jul 15
First Quarter
Jul 22
Full
Jul 29
Last Quarter
Aug 6
New

Hourly Weather History & Observations

Time (CDT) Temp. Heat Index Dew Point Humidity Pressure Visibility Wind Dir Wind Speed Gust Speed Precip Events Conditions
12:15 AM 82.0 °F 82.2 °F 59.2 °F 46% 30.07 in 10.0 mi SSW 4.6 mph - N/A   Clear
12:35 AM 81.9 °F 82.1 °F 59.2 °F 46% 30.07 in 10.0 mi SSW 5.8 mph - N/A   Clear
12:55 AM 80.8 °F 81.4 °F 59.7 °F 49% 30.07 in 10.0 mi SSE 4.6 mph - N/A   Clear
1:15 AM 78.6 °F - 60.4 °F 54% 30.08 in 10.0 mi SSW 4.6 mph - N/A   Clear
1:35 AM 78.6 °F - 60.1 °F 53% 30.08 in 10.0 mi SSW 6.9 mph - N/A   Clear
1:55 AM 79.0 °F - 61.0 °F 54% 30.08 in 10.0 mi South 8.1 mph - N/A   Clear
2:15 AM 80.6 °F 81.9 °F 63.0 °F 55% 30.08 in 10.0 mi South 11.5 mph - N/A   Clear
2:35 AM 80.2 °F 81.8 °F 63.9 °F 57% 30.09 in 10.0 mi South 9.2 mph - N/A   Clear
2:55 AM 80.6 °F 82.3 °F 64.6 °F 58% 30.08 in 10.0 mi South 11.5 mph - N/A   Clear
3:15 AM 80.1 °F 82.1 °F 66.2 °F 62% 30.08 in 10.0 mi South 11.5 mph - N/A   Clear
3:35 AM 79.7 °F - 67.1 °F 65% 30.08 in 10.0 mi South 10.4 mph - N/A   Clear
3:55 AM 79.3 °F - 67.1 °F 66% 30.08 in 10.0 mi SSW 11.5 mph 17.3 mph N/A   Clear
4:15 AM 79.0 °F - 67.5 °F 68% 30.07 in 10.0 mi SSW 11.5 mph 17.3 mph N/A   Clear
4:35 AM 78.8 °F - 68.0 °F 69% 30.07 in 10.0 mi SSW 12.7 mph 20.7 mph N/A   Clear
4:55 AM 78.6 °F - 68.2 °F 70% 30.07 in 10.0 mi SSW 12.7 mph 17.3 mph N/A   Clear
5:15 AM 78.1 °F - 68.4 °F 72% 30.08 in 10.0 mi SSW 10.4 mph - N/A   Clear
5:35 AM 77.4 °F - 68.5 °F 74% 30.08 in 10.0 mi SSW 9.2 mph - N/A   Clear
5:55 AM 77.2 °F - 68.9 °F 76% 30.08 in 10.0 mi SSW 8.1 mph - N/A   Clear
6:15 AM 77.0 °F - 68.9 °F 76% 30.09 in 10.0 mi SSW 9.2 mph - N/A   Clear
6:35 AM 76.3 °F - 68.9 °F 78% 30.09 in 10.0 mi South 8.1 mph - N/A   Clear
6:55 AM 76.5 °F - 69.1 °F 78% 30.10 in 10.0 mi South 9.2 mph - N/A   Clear
7:15 AM 76.6 °F - 69.1 °F 77% 30.10 in 10.0 mi South 6.9 mph - N/A   Clear
7:35 AM 77.0 °F - 69.1 °F 76% 30.11 in 10.0 mi South 8.1 mph - N/A   Clear
7:55 AM 77.4 °F - 69.3 °F 76% 30.11 in 10.0 mi SSW 9.2 mph - N/A   Clear
8:15 AM 78.6 °F - 69.3 °F 73% 30.11 in 10.0 mi SSW 8.1 mph - N/A   Clear
8:35 AM 80.6 °F 83.6 °F 69.3 °F 68% 30.11 in 10.0 mi SSW 9.2 mph - N/A   Clear
8:55 AM 81.7 °F 84.9 °F 68.9 °F 65% 30.11 in 10.0 mi SSW 11.5 mph 16.1 mph N/A   Clear
9:15 AM 82.0 °F 85.3 °F 68.7 °F 64% 30.11 in 10.0 mi SW 10.4 mph 16.1 mph N/A   Clear
9:35 AM 84.2 °F 87.9 °F 68.7 °F 60% 30.11 in 10.0 mi SW 11.5 mph - N/A   Clear
9:55 AM 86.2 °F 89.7 °F 68.4 °F 55% 30.11 in 10.0 mi SSW 9.2 mph - N/A   Clear
10:15 AM 86.9 °F 89.6 °F 66.9 °F 51% 30.11 in 10.0 mi SW 8.1 mph - N/A   Clear
10:35 AM 88.7 °F 90.8 °F 65.5 °F 46% 30.10 in 10.0 mi SW 9.2 mph - N/A   Clear
10:55 AM 90.3 °F 92.2 °F 65.3 °F 43% 30.10 in 10.0 mi SSW 6.9 mph - N/A   Clear
11:15 AM 91.2 °F 92.9 °F 64.2 °F 41% 30.10 in 10.0 mi SSW 9.2 mph - N/A   Clear
11:35 AM 91.8 °F 93.0 °F 63.5 °F 39% 30.10 in 10.0 mi South 5.8 mph - N/A   Clear
11:55 AM 93.7 °F 94.9 °F 62.8 °F 36% 30.10 in 10.0 mi SSW 8.1 mph - N/A   Clear
12:15 PM 94.3 °F 95.3 °F 62.4 °F 35% 30.09 in 10.0 mi SW 6.9 mph - N/A   Clear
12:35 PM 93.6 °F 94.2 °F 61.7 °F 35% 30.09 in 10.0 mi SSW 4.6 mph - N/A   Clear
12:55 PM 95.0 °F 95.6 °F 61.5 °F 33% 30.08 in 10.0 mi Calm Calm - N/A   Clear
1:15 PM 96.3 °F 96.7 °F 60.8 °F 31% 30.07 in 10.0 mi South 5.8 mph - N/A   Clear
1:35 PM 96.1 °F 96.0 °F 59.5 °F 30% 30.06 in 10.0 mi South 8.1 mph - N/A   Clear
1:55 PM 98.1 °F 97.7 °F 58.5 °F 27% 30.06 in 10.0 mi SE 8.1 mph - N/A   Clear
2:15 PM 97.5 °F 97.3 °F 59.0 °F 28% 30.06 in 10.0 mi SSE 9.2 mph - N/A   Scattered Clouds
2:35 PM 97.7 °F 97.1 °F 58.3 °F 27% 30.05 in 10.0 mi South 5.8 mph - N/A   Scattered Clouds
2:55 PM 97.3 °F 96.6 °F 57.7 °F 27% 30.05 in 10.0 mi SW 5.8 mph - N/A   Clear
3:15 PM 99.9 °F 99.4 °F 58.1 °F 25% 30.04 in 10.0 mi South 5.8 mph - N/A   Scattered Clouds
3:35 PM 99.5 °F 98.9 °F 57.9 °F 25% 30.03 in 10.0 mi SSW 6.9 mph - N/A   Clear
3:55 PM 100.2 °F 99.5 °F 56.8 °F 24% 30.02 in 10.0 mi ESE 4.6 mph - N/A   Scattered Clouds
4:15 PM 100.6 °F 99.5 °F 56.3 °F 23% 30.01 in 10.0 mi ESE 5.8 mph - N/A   Scattered Clouds
4:35 PM 100.4 °F 99.3 °F 56.5 °F 23% 30.00 in 10.0 mi Calm Calm - N/A   Clear
4:55 PM 100.0 °F 98.8 °F 55.8 °F 23% 29.99 in 10.0 mi Calm Calm - N/A   Clear
5:15 PM 100.6 °F 99.5 °F 56.1 °F 23% 29.98 in 10.0 mi Calm Calm - N/A   Clear
5:35 PM 100.8 °F 99.8 °F 56.1 °F 23% 29.97 in 10.0 mi South 8.1 mph - N/A   Scattered Clouds
5:55 PM 100.8 °F 99.3 °F 55.4 °F 22% 29.97 in 10.0 mi SSW 6.9 mph 16.1 mph N/A   Scattered Clouds
6:15 PM 99.7 °F 97.8 °F 55.0 °F 22% 29.95 in 10.0 mi SSE 6.9 mph - N/A   Clear
6:35 PM 99.5 °F 98.0 °F 55.2 °F 23% 29.95 in 10.0 mi SSE 9.2 mph - N/A   Clear
6:55 PM 98.8 °F 97.0 °F 54.7 °F 23% 29.95 in 10.0 mi SSE 9.2 mph 17.3 mph N/A   Clear
7:15 PM 97.9 °F 95.8 °F 54.5 °F 23% 29.95 in 10.0 mi SSE 8.1 mph - N/A   Clear
7:35 PM 97.5 °F 95.3 °F 54.1 °F 23% 29.95 in 10.0 mi SSE 4.6 mph - N/A   Clear
7:55 PM 96.6 °F - 52.9 °F 23% 29.95 in 10.0 mi SSE 5.8 mph - N/A   Clear
8:15 PM 94.1 °F 91.6 °F 53.6 °F 25% 29.95 in 10.0 mi SE 4.6 mph - N/A   Clear
8:35 PM 91.8 °F 89.8 °F 54.9 °F 29% 29.95 in 10.0 mi SSE 4.6 mph - N/A   Clear
8:55 PM 90.5 °F 88.5 °F 55.4 °F 30% 29.95 in 10.0 mi SSE 5.8 mph - N/A   Clear
9:15 PM 88.9 °F 87.1 °F 55.8 °F 32% 29.95 in 10.0 mi SSE 5.8 mph - N/A   Scattered Clouds
9:35 PM 88.7 °F 87.1 °F 55.8 °F 33% 29.95 in 10.0 mi SSE 5.8 mph - N/A   Scattered Clouds
9:55 PM 87.4 °F 85.9 °F 55.9 °F 34% 29.97 in 10.0 mi SE 5.8 mph - N/A   Clear
10:15 PM 87.4 °F 86.1 °F 56.3 °F 35% 29.97 in 10.0 mi SSE 8.1 mph - N/A   Scattered Clouds
10:35 PM 87.3 °F 86.1 °F 57.4 °F 36% 29.97 in 10.0 mi South 8.1 mph - N/A   Clear
10:55 PM 86.5 °F 85.6 °F 58.3 °F 38% 29.97 in 10.0 mi South 8.1 mph - N/A   Clear
11:15 PM 86.5 °F 85.9 °F 58.8 °F 39% 29.97 in 10.0 mi South 6.9 mph - N/A   Clear
11:35 PM 86.0 °F 85.4 °F 59.4 °F 40% 29.98 in 10.0 mi South 8.1 mph - N/A   Clear
11:55 PM 85.6 °F 85.2 °F 59.5 °F 41% 29.99 in 10.0 mi South 5.8 mph - N/A   Clear